Tracking 19817 objects as of 19-Aug-2019
HD Live streaming from Space Station
objects crossing your sky now

YAOGAN-30 P

Track YAOGAN-30 P now!
10-day predictions


NORAD ID: 44450
Int'l Code: 2019-045B
Perigee: 599.4 km
Apogee: 612.9 km
Inclination: 35.0 °
Period: 96.7 minutes
Semi major axis: 6977 km
RCS: Unknown
Launch date: July 26, 2019
Source: People's Republic of China (PRC)
Launch site: Xichang Space Center, China (XSC)
aabbcc
Your satellite tracking list
Your tracking list is empty




NASA's NSSDC Master Catalog

Two Line Element Set (TLE):
1 44450U 19045B   19229.12400216  .00000262  00000-0  29643-4 0  9993
2 44450  34.9953 207.1567 0009667 130.8755 229.2717 14.89663553  3279
Source of the keplerian elements: AFSPC